GW4572 Weather Reports


Display with metric or nautical units.
time (UTC)temp
F
wind
direction
speed
MPH
gust
MPH
rain 1hr
in
rain 24hr
in
rain mn
in
humidity
%
barometer
mb
20260509111105 48 272 0.0 0.0 0.00 0.00 0.00 77 1014.3
20260509110602 48 272 0.0 0.0 0.00 0.00 0.00 76 1014.2
20260509110059 48 272 0.0 0.0 0.00 0.00 0.00 76 1014.3
20260509105558 48 272 1.0 1.0 0.00 0.00 0.00 74 1014.5
20260509105056 48 272 0.0 0.0 0.00 0.00 0.00 75 1014.3
20260509104552 47 272 0.0 1.0 0.00 0.00 0.00 74 1014.3
20260509104049 47 272 1.0 1.0 0.00 0.00 0.00 73 1014.6
20260509103546 47 272 0.0 0.0 0.00 0.00 0.00 72 1014.4
20260509103044 47 272 0.0 0.0 0.00 0.00 0.00 73 1014.4
20260509102541 47 272 0.0 0.0 0.00 0.00 0.00 73 1014.5
20260509102038 47 272 0.0 0.0 0.00 0.00 0.00 71 1014.6
20260509101534 47 272 0.0 0.0 0.00 0.00 0.00 71 1014.5
20260509101031 47 272 0.0 0.0 0.00 0.00 0.00 73 1014.3
20260509100528 48 272 0.0 0.0 0.00 0.00 0.00 69 1014.2
20260509100026 48 272 0.0 0.0 0.00 0.00 0.00 68 1014.1
20260509095522 48 272 0.0 0.0 0.00 0.00 0.00 68 1013.9
20260509095020 48 272 0.0 0.0 0.00 0.00 0.00 70 1014.3
20260509094516 47 272 0.0 0.0 0.00 0.00 0.00 72 1014.1
20260509094013 47 272 0.0 0.0 0.00 0.00 0.00 72 1014.3
20260509093511 47 272 0.0 0.0 0.00 0.00 0.00 73 1014.5
20260509093009 48 272 0.0 0.0 0.00 0.00 0.00 71 1014.3
20260509092506 48 272 0.0 0.0 0.00 0.00 0.00 71 1014.3
20260509092005 48 272 0.0 0.0 0.00 0.00 0.00 69 1014.6
20260509091502 48 272 0.0 0.0 0.00 0.00 0.00 69 1014.3
20260509090958 49 272 0.0 0.0 0.00 0.00 0.00 67 1014.3
20260509090456 49 272 0.0 0.0 0.00 0.00 0.00 67 1014.5
20260509085953 49 272 0.0 0.0 0.00 0.00 0.00 66 1014.5
20260509085450 50 272 0.0 0.0 0.00 0.00 0.00 65 1014.5
20260509084946 50 272 0.0 0.0 0.00 0.00 0.00 66 1014.6
20260509084443 50 272 0.0 0.0 0.00 0.00 0.00 64 1014.6
20260509083941 50 272 2.0 2.0 0.00 0.00 0.00 65 1014.7
20260509083438 51 268 2.0 2.0 0.00 0.00 0.00 63 1014.4
20260509082934 52 265 1.0 2.0 0.00 0.00 0.00 60 1014.4
20260509082432 52 249 2.0 3.0 0.00 0.00 0.00 59 1014.3
20260509081929 52 247 2.0 3.0 0.00 0.00 0.00 58 1014.2
20260509081426 52 242 2.0 3.0 0.00 0.00 0.00 56 1014.4
20260509080923 52 247 3.0 3.0 0.00 0.00 0.00 57 1014.4
20260509080421 52 262 2.0 2.0 0.00 0.00 0.00 58 1014.4
20260509075919 52 242 1.0 2.0 0.00 0.00 0.00 59 1014.2
20260509075416 52 242 2.0 3.0 0.00 0.00 0.00 57 1014.3
20260509074913 52 243 2.0 2.0 0.00 0.00 0.00 56 1013.9
20260509074411 52 241 2.0 2.0 0.00 0.00 0.00 58 1014.5
20260509073907 52 242 2.0 3.0 0.00 0.00 0.00 57 1014.3
20260509073404 52 246 2.0 3.0 0.00 0.00 0.00 57 1014.4
20260509072900 52 248 2.0 3.0 0.00 0.00 0.00 57 1014.5
20260509072356 53 244 3.0 3.0 0.00 0.00 0.00 55 1014.5
20260509071853 53 247 3.0 3.0 0.00 0.00 0.00 55 1014.4
20260509071350 52 239 2.0 3.0 0.00 0.00 0.00 56 1014.6
20260509070848 52 241 2.0 3.0 0.00 0.00 0.00 56 1014.4
20260509070344 52 240 2.0 3.0 0.00 0.00 0.00 57 1014.3
20260509065840 53 252 2.0 4.0 0.00 0.00 0.00 56 1014.4
20260509065337 52 257 2.0 3.0 0.00 0.00 0.00 58 1014.4
20260509064833 51 249 2.0 2.0 0.00 0.00 0.00 58 1014.3
20260509064330 51 244 2.0 3.0 0.00 0.00 0.00 58 1014.4
20260509063828 51 242 2.0 2.0 0.00 0.00 0.00 59 1014.1
20260509063324 50 244 2.0 2.0 0.00 0.00 0.00 62 1014.4
20260509062821 50 246 2.0 2.0 0.00 0.00 0.00 63 1014.6
20260509062318 49 245 2.0 3.0 0.00 0.00 0.00 62 1014.7
20260509061815 49 252 2.0 2.0 0.00 0.00 0.00 62 1014.6
20260509061314 48 256 2.0 2.0 0.00 0.00 0.00 66 1014.5
20260509060810 47 257 2.0 2.0 0.00 0.00 0.00 67 1014.7
20260509060307 48 256 2.0 2.0 0.00 0.00 0.00 66 1014.9
20260509055802 49 256 2.0 2.0 0.00 0.00 0.00 65 1014.7
20260509055258 48 257 2.0 2.0 0.00 0.00 0.00 66 1014.8
20260509054755 49 256 2.0 2.0 0.00 0.00 0.00 67 1014.8
20260509054252 48 257 0.0 0.0 0.00 0.00 0.00 67 1014.8
20260509053751 49 257 0.0 0.0 0.00 0.00 0.00 68 1014.9
20260509053247 49 257 0.0 0.0 0.00 0.00 0.00 68 1015.1
20260509052745 49 257 0.0 0.0 0.00 0.00 0.00 68 1015.2
20260509052243 49 257 0.0 0.0 0.00 0.00 0.00 66 1015.4
20260509051740 50 257 0.0 0.0 0.00 0.00 0.00 69 1015.1
20260509051238 51 257 0.0 0.0 0.00 0.00 0.00 62 1014.9
20260509050734 51 257 0.0 0.0 0.00 0.00 0.00 62 1015.4
20260509050231 51 257 0.0 0.0 0.00 0.00 0.00 64 1015.3
20260509045728 51 257 0.0 0.0 0.00 0.00 0.00 61 1015.6
20260509045225 51 257 1.0 1.0 0.00 0.00 0.00 63 1015.4
20260509044722 51 257 1.0 1.0 0.00 0.00 0.00 62 1015.7
20260509044220 51 257 1.0 1.0 0.00 0.00 0.00 62 1015.4
20260509043716 51 257 1.0 2.0 0.00 0.00 0.00 63 1015.3
20260509043212 50 257 1.0 2.0 0.00 0.00 0.00 65 1015.5
20260509042709 50 257 1.0 2.0 0.00 0.00 0.00 66 1015.5
20260509042205 50 256 1.0 2.0 0.00 0.00 0.00 66 1015.6
20260509041701 51 257 1.0 1.0 0.00 0.00 0.00 64 1015.6
20260509041159 51 256 1.0 1.0 0.00 0.00 0.00 61 1015.5
20260509040657 51 257 1.0 1.0 0.00 0.00 0.00 60 1015.6
20260509040153 52 257 1.0 2.0 0.00 0.00 0.00 59 1015.8
20260509035650 52 256 1.0 1.0 0.00 0.00 0.00 59 1015.7
20260509035147 52 256 1.0 2.0 0.00 0.00 0.00 58 1015.7
20260509034645 52 257 1.0 2.0 0.00 0.00 0.00 59 1015.9
20260509034142 52 257 1.0 2.0 0.00 0.00 0.00 59 1015.8
20260509033639 52 257 1.0 2.0 0.00 0.00 0.00 60 1015.9
20260509033136 52 257 1.0 2.0 0.00 0.00 0.00 60 1015.7
20260509032633 52 256 2.0 2.0 0.00 0.00 0.00 59 1015.8
20260509032130 51 256 2.0 2.0 0.00 0.00 0.00 60 1015.8
20260509031628 51 256 1.0 2.0 0.00 0.00 0.00 63 1015.8
20260509031125 51 256 0.0 0.0 0.00 0.00 0.00 63 1015.8
20260509030623 51 256 0.0 0.0 0.00 0.00 0.00 64 1015.7
20260509030120 50 256 0.0 0.0 0.00 0.00 0.00 65 1015.4
20260509025616 51 255 0.0 0.0 0.00 0.00 0.00 67 1015.2
20260509025112 52 256 0.0 0.0 0.00 0.00 0.00 59 1015.6
20260509024607 51 256 0.0 0.0 0.00 0.00 0.00 59 1015.7
20260509024103 52 255 0.0 0.0 0.00 0.00 0.00 58 1015.8
20260509023601 51 256 0.0 0.0 0.00 0.00 0.00 60 1015.8
20260509023058 50 256 0.0 0.0 0.00 0.00 0.00 65 1015.8
20260509022554 50 256 1.0 2.0 0.00 0.00 0.00 67 1015.6
20260509022053 51 255 2.0 2.0 0.00 0.00 0.00 64 1015.7
20260509021549 51 256 1.0 2.0 0.00 0.00 0.00 59 1015.6
20260509021046 51 256 1.0 2.0 0.00 0.00 0.00 60 1015.8
20260509020545 51 256 2.0 2.0 0.00 0.00 0.00 62 1015.9
20260509020041 51 256 1.0 1.0 0.00 0.00 0.00 62 1015.9
20260509015540 52 255 1.0 2.0 0.00 0.00 0.00 60 1015.7
20260509015037 52 256 1.0 2.0 0.00 0.00 0.00 58 1015.8
20260509014533 51 256 1.0 2.0 0.00 0.00 0.00 61 1016.0
20260509014030 50 256 1.0 2.0 0.00 0.00 0.00 63 1016.1
20260509013527 50 255 0.0 0.0 0.00 0.00 0.00 64 1016.0
20260509013022 51 255 0.0 0.0 0.00 0.00 0.00 61 1015.8
20260509012519 53 255 0.0 0.0 0.00 0.00 0.00 58 1015.7
20260509012016 52 255 0.0 0.0 0.00 0.00 0.00 56 1015.7
20260509011514 51 255 0.0 0.0 0.00 0.00 0.00 58 1015.5
20260509011011 51 255 1.0 1.0 0.00 0.00 0.00 60 1015.4
20260509010509 53 255 1.0 2.0 0.00 0.00 0.00 56 1015.4
20260509010006 53 255 1.0 1.0 0.00 0.00 0.00 54 1015.6
20260509005504 53 255 1.0 2.0 0.00 0.00 0.00 53 1015.5
20260509005003 53 255 2.0 2.0 0.00 0.00 0.00 54 1015.4
20260509004500 52 255 2.0 2.0 0.00 0.00 0.00 55 1015.6
20260509003957 52 252 2.0 2.0 0.00 0.00 0.00 55 1015.5
20260509003456 52 252 2.0 2.0 0.00 0.00 0.00 55 1015.7
20260509002952 52 251 2.0 2.0 0.00 0.00 0.00 56 1015.5
20260509002450 52 246 2.0 2.0 0.00 0.00 0.00 56 1015.8
20260509001947 53 246 1.0 2.0 0.00 0.00 0.00 54 1015.7
20260509001444 54 246 2.0 2.0 0.00 0.00 0.00 52 1015.6
20260509000940 54 244 2.0 2.0 0.00 0.00 0.00 52 1015.5
20260509000440 55 240 2.0 3.0 0.00 0.00 0.00 50 1015.5
20260508235934 55 243 2.0 3.0 0.00 0.00 0.00 49 1015.5
20260508235432 56 243 4.0 4.0 0.00 0.00 0.00 47 1015.5
20260508234928 56 262 4.0 4.0 0.00 0.00 0.00 48 1015.5
20260508234426 56 268 4.0 4.0 0.00 0.00 0.00 48 1015.4
20260508233923 57 252 4.0 6.0 0.00 0.00 0.00 46 1015.4
20260508233423 57 256 3.0 4.0 0.00 0.00 0.00 47 1015.4
20260508232919 57 272 2.0 4.0 0.00 0.00 0.00 48 1015.6
20260508232416 57 253 2.0 3.0 0.00 0.00 0.00 48 1015.5
20260508231913 57 261 4.0 6.0 0.00 0.00 0.00 46 1015.3
20260508231410 58 285 4.0 7.0 0.00 0.00 0.00 45 1015.3
20260508230907 58 239 3.0 4.0 0.00 0.00 0.00 46 1015.4
20260508230404 58 249 3.0 6.0 0.00 0.00 0.00 46 1015.4
20260508225901 59 272 4.0 4.0 0.00 0.00 0.00 44 1015.5
20260508225357 59 245 6.0 7.0 0.00 0.00 0.00 44 1015.3
20260508224855 59 260 5.0 7.0 0.00 0.00 0.00 45 1015.5
20260508224353 59 270 6.0 9.0 0.00 0.00 0.00 44 1015.4
20260508223850 60 287 4.0 6.0 0.00 0.00 0.00 44 1015.3
20260508223347 59 234 2.0 6.0 0.00 0.00 0.00 45 1015.5
20260508222845 59 267 6.0 7.0 0.00 0.00 0.00 44 1015.4
20260508222342 59 272 7.0 10.0 0.00 0.00 0.00 44 1015.4
20260508221838 59 296 6.0 8.0 0.00 0.00 0.00 44 1015.5
20260508221334 59 236 5.0 11.0 0.00 0.00 0.00 44 1015.4
20260508220830 59 262 6.0 8.0 0.00 0.00 0.00 44 1015.4
20260508220327 59 250 3.0 7.0 0.00 0.00 0.00 44 1015.5
20260508215823 60 281 3.0 4.0 0.00 0.00 0.00 45 1015.6
20260508215320 60 265 4.0 8.0 0.00 0.00 0.00 45 1015.5
20260508214817 59 263 6.0 10.0 0.00 0.00 0.00 45 1015.4
20260508214314 60 287 4.0 9.0 0.00 0.00 0.00 44 1015.5
20260508213811 60 294 2.0 6.0 0.00 0.00 0.00 43 1015.7
20260508213308 59 289 3.0 7.0 0.00 0.00 0.00 46 1015.5
20260508212804 59 303 4.0 6.0 0.00 0.00 0.00 46 1015.6
20260508212300 60 14 4.0 6.0 0.00 0.00 0.00 46 1015.7
20260508211756 58 269 6.0 9.0 0.00 0.00 0.00 46 1015.7
20260508211252 58 262 5.0 9.0 0.00 0.00 0.00 47 1015.7
20260508210750 58 274 4.0 8.0 0.00 0.00 0.00 47 1015.6
20260508210246 58 242 7.0 9.0 0.00 0.00 0.00 45 1015.9
20260508205743 60 244 8.0 11.0 0.00 0.00 0.00 44 1015.9
20260508205239 60 279 5.0 10.0 0.00 0.00 0.00 45 1015.9
20260508204736 62 292 5.0 7.0 0.00 0.00 0.00 43 1015.8
20260508204227 60 240 5.0 7.0 0.00 0.00 0.00 45 1015.7
20260508203723 60 279 7.0 11.0 0.00 0.00 0.00 45 1015.7
20260508203219 60 263 6.0 8.0 0.00 0.00 0.00 44 1015.8
20260508202715 59 268 6.0 7.0 0.00 0.00 0.00 45 1015.9
20260508202213 59 233 9.0 14.0 0.00 0.00 0.00 44 1016.0
20260508201709 59 256 8.0 13.0 0.00 0.00 0.00 47 1016.0
20260508201206 57 273 5.0 8.0 0.00 0.00 0.00 49 1015.9
20260508200703 58 272 5.0 10.0 0.00 0.00 0.00 46 1016.2
20260508200159 57 249 4.0 7.0 0.00 0.00 0.00 48 1016.4
20260508195655 57 251 6.0 9.0 0.00 0.00 0.00 47 1016.2
20260508195152 57 259 6.0 9.0 0.00 0.00 0.00 47 1016.5
20260508194648 57 239 6.0 9.0 0.00 0.00 0.00 47 1016.5
20260508194145 57 313 4.0 10.0 0.00 0.00 0.00 47 1016.6
20260508193642 58 296 3.0 7.0 0.00 0.00 0.00 46 1016.6
20260508193139 57 285 5.0 9.0 0.00 0.00 0.00 47 1016.8
20260508192636 58 231 4.0 9.0 0.00 0.00 0.00 46 1016.8
20260508192133 59 282 4.0 9.0 0.00 0.00 0.00 45 1016.7
20260508191630 58 276 5.0 10.0 0.00 0.00 0.00 45 1016.9
20260508191126 57 242 5.0 7.0 0.00 0.00 0.00 47 1016.8
20260508190624 58 259 7.0 13.0 0.00 0.00 0.00 45 1016.8
20260508190120 62 274 8.0 11.0 0.00 0.00 0.00 43 1017.0
20260508185617 60 287 6.0 8.0 0.00 0.00 0.00 45 1016.8
20260508185115 58 264 4.0 9.0 0.00 0.00 0.00 46 1016.9
20260508184612 57 259 6.0 8.0 0.00 0.00 0.00 46 1017.1
20260508184109 59 299 4.0 8.0 0.00 0.00 0.00 46 1017.1
20260508183605 58 298 2.0 10.0 0.00 0.00 0.00 46 1017.0
20260508183101 58 264 4.0 8.0 0.00 0.00 0.00 47 1017.0
20260508182558 57 272 4.0 9.0 0.00 0.00 0.00 46 1017.0
20260508182055 57 263 10.0 11.0 0.00 0.00 0.00 46 1017.3
20260508181555 58 251 11.0 13.0 0.00 0.00 0.00 44 1017.1
20260508181054 60 280 9.0 11.0 0.00 0.00 0.00 43 1017.2
20260508180550 58 286 4.0 6.0 0.00 0.00 0.00 44 1017.3
20260508180046 61 260 11.0 13.0 0.00 0.00 0.00 42 1017.1
20260508175543 62 292 7.0 10.0 0.00 0.00 0.00 46 1017.2
20260508175040 61 234 3.0 4.0 0.00 0.00 0.00 41 1017.1
20260508174538 57 265 3.0 9.0 0.00 0.00 0.00 46 1017.2
20260508174034 58 267 8.0 13.0 0.00 0.00 0.00 43 1017.2
20260508173531 56 315 7.0 9.0 0.00 0.00 0.00 46 1017.4
20260508173027 58 279 9.0 13.0 0.00 0.00 0.00 43 1017.4
20260508172524 59 263 0.0 3.0 0.00 0.00 0.00 44 1017.3
20260508172021 58 280 2.0 4.0 0.00 0.00 0.00 42 1017.5
20260508171518 59 260 6.0 13.0 0.00 0.00 0.00 42 1017.5
20260508171014 59 288 6.0 10.0 0.00 0.00 0.00 45 1017.5
20260508170512 59 329 5.0 13.0 0.00 0.00 0.00 44 1017.8
20260508170009 57 276 5.0 8.0 0.00 0.00 0.00 43 1017.7
20260508165506 58 263 8.0 11.0 0.00 0.00 0.00 42 1017.8
20260508165002 60 282 4.0 6.0 0.00 0.00 0.00 41 1017.7
20260508164459 59 263 4.0 8.0 0.00 0.00 0.00 44 1017.9
20260508163956 58 287 8.0 9.0 0.00 0.00 0.00 43 1017.9
20260508163454 56 296 4.0 6.0 0.00 0.00 0.00 44 1018.0
20260508162949 58 238 3.0 8.0 0.00 0.00 0.00 42 1018.0
20260508162447 57 302 6.0 8.0 0.00 0.00 0.00 42 1018.1
20260508161944 58 292 2.0 4.0 0.00 0.00 0.00 52 1018.0
20260508161441 56 238 4.0 6.0 0.00 0.00 0.00 45 1018.1
20260508160938 58 234 3.0 4.0 0.00 0.00 0.00 44 1018.0
20260508160437 59 298 2.0 4.0 0.00 0.00 0.00 42 1017.9
20260508155932 58 68 2.0 8.0 0.00 0.00 0.00 44 1018.0
20260508155430 56 267 11.0 14.0 0.00 0.00 0.00 42 1018.1
20260508154926 56 277 10.0 14.0 0.00 0.00 0.00 43 1018.0
20260508154424 53 295 3.0 7.0 0.00 0.00 0.00 48 1018.1
20260508153921 54 288 4.0 7.0 0.00 0.00 0.00 49 1018.3
20260508153418 54 252 6.0 8.0 0.00 0.00 0.00 48 1018.1
20260508152914 54 291 5.0 11.0 0.00 0.00 0.00 49 1018.1
20260508152411 54 272 6.0 16.0 0.00 0.00 0.00 50 1018.1
20260508151907 54 250 9.0 13.0 0.00 0.00 0.00 49 1018.4
20260508151404 55 286 4.0 8.0 0.00 0.00 0.00 49 1018.3
20260508150900 54 292 7.0 15.0 0.00 0.00 0.00 49 1018.1
20260508150357 53 310 4.0 8.0 0.00 0.00 0.00 49 1018.3
20260508145853 54 249 9.0 15.0 0.00 0.00 0.00 50 1018.2
20260508145349 54 289 2.0 4.0 0.00 0.00 0.00 53 1018.2
20260508144846 52 256 4.0 7.0 0.00 0.00 0.00 49 1018.3
20260508144344 52 267 6.0 11.0 0.00 0.00 0.00 51 1018.1
20260508143841 52 265 5.0 8.0 0.00 0.00 0.00 50 1018.3
20260508143338 51 297 3.0 4.0 0.00 0.00 0.00 51 1018.2
20260508142835 51 309 6.0 11.0 0.00 0.00 0.00 51 1018.4
20260508142332 51 267 6.0 10.0 0.00 0.00 0.00 52 1018.3
20260508141828 52 258 5.0 6.0 0.00 0.00 0.00 49 1018.2
20260508141325 51 274 7.0 9.0 0.00 0.00 0.00 51 1018.2
20260508140823 52 274 9.0 11.0 0.00 0.00 0.00 48 1018.4
20260508140320 52 270 7.0 8.0 0.00 0.00 0.00 50 1018.3
20260508135815 52 247 5.0 7.0 0.00 0.00 0.00 49 1018.3
20260508135312 51 298 4.0 7.0 0.00 0.00 0.00 51 1018.2
20260508134808 51 270 9.0 15.0 0.00 0.00 0.00 50 1018.5
20260508134305 51 251 5.0 11.0 0.00 0.00 0.00 50 1018.2
20260508133802 51 278 6.0 9.0 0.00 0.00 0.00 49 1017.9
20260508133259 51 288 6.0 11.0 0.00 0.00 0.00 48 1018.1
20260508132757 51 288 8.0 10.0 0.00 0.00 0.00 49 1018.1
20260508132254 52 207 6.0 9.0 0.00 0.00 0.00 47 1018.0
20260508131750 52 236 6.0 8.0 0.00 0.00 0.00 48 1018.0
20260508131246 51 282 4.0 8.0 0.00 0.00 0.00 49 1018.0
20260508130742 50 246 7.0 13.0 0.00 0.00 0.00 49 1017.9
20260508130240 48 255 5.0 7.0 0.00 0.00 0.00 52 1017.7
20260508125736 49 275 8.0 13.0 0.00 0.00 0.00 51 1017.8
20260508125232 49 279 7.0 8.0 0.00 0.00 0.00 52 1017.8
20260508124731 49 262 6.0 9.0 0.00 0.00 0.00 52 1017.9
20260508124227 49 237 6.0 7.0 0.00 0.00 0.00 51 1017.5
20260508123726 48 248 7.0 9.0 0.00 0.00 0.00 52 1017.5
20260508123223 48 267 5.0 9.0 0.00 0.00 0.00 54 1017.9
20260508122719 47 240 5.0 6.0 0.00 0.00 0.00 54 1017.8
20260508122216 46 258 4.0 6.0 0.00 0.00 0.00 57 1017.8
20260508121714 45 250 4.0 6.0 0.00 0.00 0.00 57 1017.8
20260508121212 45 286 7.0 8.0 0.00 0.00 0.00 57 1017.7
20260508120709 45 251 4.0 6.0 0.00 0.00 0.00 58 1017.5
20260508120207 44 253 4.0 6.0 0.00 0.00 0.00 61 1017.4
20260508115705 43 272 4.0 9.0 0.00 0.00 0.00 60 1017.5
20260508115201 43 256 3.0 4.0 0.00 0.00 0.00 61 1017.8
20260508114658 43 270 3.0 6.0 0.00 0.00 0.00 63 1017.7